Hourly Data Report for October 05, 2015

All times are specified in Local Standard Time (LST). Add 1 hour to adjust for Daylight Saving Time where and when it is observed.

KAMLOOPS A
BRITISH COLUMBIA

50°42'09.000" N
120°26'55.000" W
345.30 m
1163781
71887
YKA

Download Data

Hourly Data (October 2015)
Hourly Data Report for October 5, 2015
Temp Definition
°C
Dew Point Temp Definition
°C
Rel Hum Definition
%
Wind Dir Definition
10's deg

Wind Spd Definition
km/h
Visibility Definition
km
Stn Press Definition
kPa
Hmdx Definition


Wind Chill Definition


Weather Definition


TIME
00:00 Legend Double Dagger 4.8 2.7 86 10 11 64.4 97.61     LegendNANA
01:00 Legend Double Dagger 4.7 2.4 85 8 10 64.4 97.62     Clear
02:00 Legend Double Dagger 4.1 1.8 85 7 10 64.4 97.67     LegendNANA
03:00 Legend Double Dagger 3.9 2.7 92 9 12 64.4 97.70     LegendNANA
04:00 Legend Double Dagger 2.3 0.8 90 10 11 64.4 97.74     Clear
05:00 Legend Double Dagger 3.0 1.8 92 9 10 64.4 97.78     LegendNANA
06:00 Legend Double Dagger 1.7 0.7 93 9 8 64.4 97.80     LegendNANA
07:00 Legend Double Dagger 4.5 3.2 91 10 6 64.4 97.84     Mostly Cloudy
08:00 Legend Double Dagger 5.0 3.2 88 11 14 48.3 97.84     LegendNANA
09:00 Legend Double Dagger 5.6 3.5 86 11 16 48.3 97.85     LegendNANA
10:00 Legend Double Dagger 8.4 4.1 74 9 13 64.4 97.82     Mostly Cloudy
11:00 Legend Double Dagger 9.6 4.8 72 10 19 64.4 97.75     LegendNANA
12:00 Legend Double Dagger 10.7 5.3 69 11 18 64.4 97.70     LegendNANA
13:00 Legend Double Dagger 12.8 6.0 63 10 14 64.4 97.59     Mostly Cloudy
14:00 Legend Double Dagger 14.0 5.9 58 9 11 64.4 97.51     LegendNANA
15:00 Legend Double Dagger 15.1 6.2 55 8 11 64.4 97.46     LegendNANA
16:00 Legend Double Dagger 15.2 7.1 58 11 13 64.4 97.41     Mostly Cloudy
17:00 Legend Double Dagger 14.1 6.0 58 10 9 64.4 97.42     LegendNANA
18:00 Legend Double Dagger 11.5 5.8 68 10 9 64.4 97.44     LegendNANA
19:00 Legend Double Dagger 10.2 6.0 75 9 11 64.4 97.47     Mostly Cloudy
20:00 Legend Double Dagger 11.6 6.6 71 8 15 64.4 97.47     LegendNANA
21:00 Legend Double Dagger 10.1 6.1 76 7 13 64.4 97.48     LegendNANA
22:00 Legend Double Dagger 9.7 6.4 80 11 14 64.4 97.50     Mostly Cloudy
23:00 Legend Double Dagger 9.4 6.3 81 12 13 64.4 97.50     LegendNANA

Notes on Data Quality.

Legend

  • E = Estimated
  • M = Missing
  • NA = Not Available
  • ‡ = Partner data that is not subject to review by the National Climate Archives
Date modified: